TimeEDT,TemperatureF,Dew PointF,Humidity,Sea Level PressureIn,VisibilityMPH,Wind Direction,Wind SpeedMPH,Gust SpeedMPH,PrecipitationIn,Events,Conditions,WindDirDegrees,DateUTC
12:15 AM,45.0,12.6,27,30.06,10.0,WNW,9.2,-,N/A,,Clear,300,2013-03-20 04:15:00
12:35 AM,44.4,12.2,27,30.06,10.0,WNW,8.1,-,N/A,,Clear,300,2013-03-20 04:35:00
12:55 AM,43.7,12.4,28,30.06,10.0,West,6.9,-,N/A,,Clear,280,2013-03-20 04:55:00
1:35 AM,42.8,12.9,30,30.06,10.0,West,9.2,-,N/A,,Clear,270,2013-03-20 05:35:00
1:55 AM,45.1,10.9,25,30.06,10.0,WNW,9.2,-,N/A,,Scattered Clouds,290,2013-03-20 05:55:00
2:15 AM,45.5,9.0,23,30.05,10.0,WNW,10.4,-,N/A,,Mostly Cloudy,290,2013-03-20 06:15:00
2:35 AM,45.0,8.6,23,30.05,10.0,WNW,9.2,18.4,N/A,,Mostly Cloudy,290,2013-03-20 06:35:00
2:55 AM,44.6,8.6,23,30.05,10.0,West,8.1,-,N/A,,Mostly Cloudy,270,2013-03-20 06:55:00
3:15 AM,43.9,7.7,23,30.05,10.0,WNW,8.1,-,N/A,,Mostly Cloudy,300,2013-03-20 07:15:00
3:35 AM,43.2,8.2,24,30.05,10.0,West,5.8,-,N/A,,Mostly Cloudy,280,2013-03-20 07:35:00
3:55 AM,42.8,9.0,25,30.04,10.0,NW,5.8,-,N/A,,Mostly Cloudy,310,2013-03-20 07:55:00
4:15 AM,43.2,6.3,22,30.03,10.0,NW,9.2,-,N/A,,Overcast,320,2013-03-20 08:15:00
4:35 AM,42.4,7.7,24,30.02,10.0,NW,9.2,-,N/A,,Overcast,320,2013-03-20 08:35:00
4:55 AM,42.3,6.4,23,30.02,10.0,NW,9.2,-,N/A,,Mostly Cloudy,320,2013-03-20 08:55:00
5:15 AM,42.1,6.1,23,30.02,10.0,NNW,5.8,-,N/A,,Mostly Cloudy,340,2013-03-20 09:15:00
5:35 AM,41.4,8.2,26,30.04,10.0,NNW,4.6,-,N/A,,Overcast,340,2013-03-20 09:35:00
5:55 AM,41.0,8.1,26,30.04,10.0,North,3.5,-,N/A,,Overcast,350,2013-03-20 09:55:00
6:15 AM,40.8,7.7,26,30.05,10.0,Calm,Calm,-,N/A,,Overcast,0,2013-03-20 10:15:00
6:35 AM,40.5,7.2,25,30.05,10.0,Calm,Calm,-,N/A,,Mostly Cloudy,0,2013-03-20 10:35:00
6:55 AM,40.3,7.7,26,30.06,10.0,Calm,Calm,-,N/A,,Overcast,0,2013-03-20 10:55:00
7:15 AM,39.9,8.2,27,30.07,10.0,Calm,Calm,-,N/A,,Overcast,0,2013-03-20 11:15:00
7:35 AM,39.9,7.3,26,30.07,10.0,Calm,Calm,-,N/A,,Overcast,0,2013-03-20 11:35:00
7:55 AM,38.8,10.9,32,30.08,10.0,Calm,Calm,-,N/A,,Mostly Cloudy,0,2013-03-20 11:55:00
8:15 AM,37.8,19.9,49,30.09,10.0,Calm,Calm,-,N/A,,Scattered Clouds,0,2013-03-20 12:15:00
8:35 AM,38.7,17.1,42,30.10,10.0,Calm,Calm,-,N/A,,Scattered Clouds,0,2013-03-20 12:35:00
8:55 AM,40.1,14.0,35,30.11,10.0,Calm,Calm,-,N/A,,Scattered Clouds,0,2013-03-20 12:55:00
9:15 AM,41.0,11.1,29,30.11,10.0,Calm,Calm,-,N/A,,Scattered Clouds,0,2013-03-20 13:15:00
9:35 AM,41.2,10.2,28,30.11,10.0,Calm,Calm,-,N/A,,Clear,0,2013-03-20 13:35:00
9:55 AM,42.3,11.5,29,30.11,10.0,West,4.6,-,N/A,,Clear,270,2013-03-20 13:55:00
10:15 AM,42.8,10.4,27,30.10,10.0,NW,5.8,-,N/A,,Clear,310,2013-03-20 14:15:00
10:35 AM,43.2,12.4,29,30.10,10.0,West,8.1,-,N/A,,Clear,260,2013-03-20 14:35:00
10:55 AM,43.5,14.4,31,30.10,10.0,WNW,5.8,-,N/A,,Clear,290,2013-03-20 14:55:00
11:15 AM,44.6,12.6,27,30.09,10.0,West,6.9,-,N/A,,Clear,270,2013-03-20 15:15:00
11:35 AM,45.9,12.0,25,30.09,10.0,Calm,Calm,-,N/A,,Clear,0,2013-03-20 15:35:00
11:55 AM,46.2,14.0,27,30.08,10.0,West,6.9,-,N/A,,Clear,260,2013-03-20 15:55:00
12:15 PM,47.3,14.7,27,30.07,10.0,WNW,4.6,-,N/A,,Clear,290,2013-03-20 16:15:00
12:35 PM,48.0,10.9,22,30.06,10.0,SW,9.2,-,N/A,,Clear,230,2013-03-20 16:35:00
12:55 PM,49.1,13.3,24,30.04,10.0,Calm,Calm,-,N/A,,Clear,0,2013-03-20 16:55:00
1:15 PM,49.5,11.8,22,30.03,10.0,West,9.2,-,N/A,,Clear,270,2013-03-20 17:15:00
1:35 PM,51.1,13.6,23,30.01,10.0,WSW,8.1,16.1,N/A,,Unknown,250,2013-03-20 17:35:00
1:55 PM,52.0,13.6,22,29.99,10.0,WSW,15.0,21.9,N/A,,Unknown,250,2013-03-20 17:55:00
2:15 PM,52.2,12.6,21,29.98,10.0,SW,11.5,19.6,N/A,,Clear,230,2013-03-20 18:15:00
2:35 PM,54.0,16.5,23,29.95,10.0,WSW,11.5,18.4,N/A,,Unknown,250,2013-03-20 18:35:00
2:55 PM,53.2,12.0,19,29.93,10.0,West,3.5,-,N/A,,Unknown,260,2013-03-20 18:55:00
3:15 PM,53.8,13.8,21,29.91,10.0,South,5.8,16.1,N/A,,Unknown,180,2013-03-20 19:15:00
3:35 PM,54.0,12.4,19,29.90,10.0,WSW,10.4,16.1,N/A,,Unknown,240,2013-03-20 19:35:00
3:55 PM,54.0,11.5,18,29.88,10.0,SSW,10.4,-,N/A,,Unknown,200,2013-03-20 19:55:00
4:15 PM,53.8,11.5,19,29.87,10.0,SW,5.8,-,N/A,,Clear,220,2013-03-20 20:15:00
4:35 PM,54.1,11.8,19,29.86,10.0,SW,11.5,17.3,N/A,,Unknown,230,2013-03-20 20:35:00
4:55 PM,53.8,12.0,19,29.85,10.0,SSE,5.8,16.1,N/A,,Unknown,160,2013-03-20 20:55:00
5:15 PM,54.0,11.7,19,29.84,10.0,South,4.6,-,N/A,,Unknown,180,2013-03-20 21:15:00
5:35 PM,53.4,12.2,19,29.84,10.0,South,10.4,17.3,N/A,,Clear,190,2013-03-20 21:35:00
5:55 PM,53.8,11.1,18,29.83,10.0,SSW,5.8,-,N/A,,Clear,210,2013-03-20 21:55:00
6:15 PM,53.8,10.6,18,29.82,10.0,SSW,5.8,-,N/A,,Unknown,200,2013-03-20 22:15:00
6:35 PM,52.3,10.8,19,29.82,10.0,SSW,6.9,-,N/A,,Unknown,210,2013-03-20 22:35:00
6:55 PM,52.0,11.3,20,29.81,10.0,SSW,6.9,-,N/A,,Scattered Clouds,210,2013-03-20 22:55:00
7:15 PM,51.6,12.7,21,29.81,10.0,SSW,10.4,17.3,N/A,,Clear,210,2013-03-20 23:15:00
7:35 PM,52.0,11.3,20,29.81,10.0,SSW,12.7,23.0,N/A,,Scattered Clouds,200,2013-03-20 23:35:00
7:55 PM,51.8,12.2,21,29.81,10.0,SSW,5.8,-,N/A,,Mostly Cloudy,210,2013-03-20 23:55:00
8:15 PM,50.9,14.0,23,29.80,10.0,South,8.1,-,N/A,,Overcast,190,2013-03-21 00:15:00
8:35 PM,50.5,15.3,25,29.81,10.0,West,12.7,23.0,N/A,,Overcast,280,2013-03-21 00:35:00
8:55 PM,50.2,15.6,25,29.80,10.0,West,4.6,-,N/A,,Overcast,260,2013-03-21 00:55:00
9:15 PM,50.4,15.4,25,29.82,10.0,SSW,12.7,19.6,N/A,,Overcast,200,2013-03-21 01:15:00
9:35 PM,48.6,21.9,35,29.81,10.0,West,5.8,19.6,N/A,,Overcast,280,2013-03-21 01:35:00
9:55 PM,48.4,22.3,36,29.82,10.0,WNW,3.5,16.1,N/A,,Overcast,290,2013-03-21 01:55:00
10:15 PM,47.5,21.9,36,29.80,10.0,South,5.8,-,N/A,,Overcast,180,2013-03-21 02:15:00
10:35 PM,46.9,21.7,37,29.79,10.0,ESE,3.5,-,N/A,,Mostly Cloudy,120,2013-03-21 02:35:00
10:55 PM,46.0,22.1,39,29.79,10.0,Calm,Calm,-,N/A,,Scattered Clouds,0,2013-03-21 02:55:00
11:15 PM,42.8,23.5,47,29.79,10.0,Calm,Calm,-,N/A,,Clear,0,2013-03-21 03:15:00
11:35 PM,44.2,21.4,40,29.79,10.0,WNW,4.6,-,N/A,,Clear,290,2013-03-21 03:35:00
11:55 PM,44.1,18.0,35,29.79,10.0,NW,5.8,-,N/A,,Scattered Clouds,310,2013-03-21 03:55:00